| time (UTC) | temp F | wind direction | speed knots | gust knots | rain 1hr in | rain 24hr in | rain mn in | humidity % | barometer mb |
| 20260508153146 | 69 | 68 | 0.0 | 0.0 | 0.00 | 0.17 | 0.00 | 87 | 1014.4 |
| 20260508151646 | 69 | 134 | 0.0 | 0.0 | 0.00 | 0.20 | 0.00 | 87 | 1014.7 |
| 20260508150146 | 69 | 200 | 0.0 | 1.7 | 0.00 | 0.67 | 0.00 | 85 | 1014.5 |
| 20260508144645 | 69 | 255 | 0.0 | 1.7 | 0.00 | 0.86 | 0.00 | 86 | 1014.4 |
| 20260508143145 | 69 | 124 | 0.0 | 1.7 | 0.00 | 0.86 | 0.00 | 87 | 1014.1 |
| 20260508141645 | 68 | 251 | 0.0 | 1.7 | 0.00 | 0.86 | 0.00 | 87 | 1014.5 |
| 20260508140145 | 67 | 131 | 0.0 | 0.0 | 0.00 | 0.86 | 0.00 | 89 | 1014.7 |
| 20260508134645 | 66 | 17 | 0.0 | 0.0 | 0.00 | 0.86 | 0.00 | 91 | 1014.8 |
| 20260508133144 | 66 | 342 | 1.7 | 2.6 | 0.00 | 0.86 | 0.00 | 90 | 1015.1 |
| 20260508131644 | 66 | 323 | 1.7 | 2.6 | 0.00 | 0.98 | 0.00 | 91 | 1014.8 |
| 20260508130144 | 66 | 360 | 0.0 | 0.0 | 0.00 | 0.98 | 0.00 | 91 | 1014.8 |
| 20260508121643 | 65 | 330 | 0.0 | 0.0 | 0.00 | 0.98 | 0.00 | 91 | 1014.0 |
| 20260508120143 | 65 | 231 | 0.0 | 0.0 | 0.00 | 0.98 | 0.00 | 92 | 1013.8 |
| 20260508114643 | 65 | 335 | 0.0 | 0.0 | 0.00 | 0.98 | 0.00 | 92 | 1014.3 |
| 20260508113142 | 65 | 146 | 0.0 | 0.0 | 0.00 | 0.98 | 0.00 | 92 | 1014.2 |
| 20260508111642 | 65 | 277 | 0.0 | 0.0 | 0.00 | 0.98 | 0.00 | 93 | 1014.1 |
| 20260508110142 | 65 | 340 | 0.0 | 0.0 | 0.00 | 0.98 | 0.00 | 93 | 1014.1 |
| 20260508104642 | 64 | 328 | 0.0 | 0.0 | 0.00 | 0.98 | 0.00 | 93 | 1013.5 |
| 20260508101642 | 65 | 326 | 0.0 | 0.0 | 0.00 | 0.98 | 0.00 | 93 | 1013.3 |
| 20260508100141 | 64 | 324 | 0.0 | 0.0 | 0.00 | 0.98 | 0.00 | 93 | 1013.0 |
| 20260508094641 | 65 | 319 | 0.0 | 1.7 | 0.00 | 0.98 | 0.00 | 93 | 1012.9 |
| 20260508093141 | 65 | 16 | 0.0 | 0.0 | 0.00 | 0.98 | 0.00 | 93 | 1012.8 |
| 20260508090141 | 65 | 12 | 0.0 | 1.7 | 0.00 | 0.98 | 0.00 | 93 | 1012.9 |
| 20260508084640 | 65 | 330 | 0.0 | 0.0 | 0.00 | 0.98 | 0.00 | 93 | 1012.8 |
| 20260508083140 | 65 | 261 | 0.0 | 1.7 | 0.00 | 0.98 | 0.00 | 94 | 1012.5 |
| 20260508081639 | 65 | 281 | 0.0 | 0.0 | 0.00 | 0.98 | 0.00 | 94 | 1012.7 |
| 20260508080139 | 64 | 352 | 0.0 | 0.0 | 0.00 | 0.98 | 0.00 | 94 | 1012.7 |
| 20260508073139 | 64 | 167 | 0.0 | 0.0 | 0.00 | 0.98 | 0.00 | 94 | 1012.9 |
| 20260508071639 | 64 | 167 | 0.0 | 0.0 | 0.00 | 0.98 | 0.00 | 94 | 1013.0 |
| 20260508070138 | 65 | 167 | 0.0 | 0.0 | 0.00 | 0.98 | 0.00 | 93 | 1012.9 |
| 20260508064638 | 65 | 34 | 0.0 | 1.7 | 0.00 | 0.98 | 0.00 | 94 | 1012.5 |
| 20260508063137 | 65 | 342 | 0.0 | 1.7 | 0.00 | 0.98 | 0.00 | 93 | 1013.3 |
| 20260508060137 | 66 | 17 | 0.0 | 1.7 | 0.00 | 0.98 | 0.00 | 93 | 1013.4 |
| 20260508054637 | 66 | 15 | 1.7 | 1.7 | 0.00 | 0.98 | 0.00 | 93 | 1013.6 |
| 20260508053137 | 66 | 16 | 0.0 | 0.0 | 0.00 | 0.98 | 0.00 | 92 | 1013.4 |
| 20260508050206 | 67 | 2 | 1.7 | 1.7 | 0.00 | 0.98 | 0.00 | 93 | 1013.6 |
| 20260508044636 | 67 | 226 | 0.0 | 0.0 | 0.00 | 0.98 | 0.98 | 93 | 1013.6 |
| 20260508043136 | 67 | 35 | 0.0 | 1.7 | 0.00 | 0.98 | 0.98 | 94 | 1013.4 |
| 20260508041635 | 67 | 355 | 0.0 | 0.0 | 0.00 | 0.98 | 0.98 | 94 | 1013.5 |
| 20260508040205 | 68 | 101 | 0.0 | 0.0 | 0.00 | 0.98 | 0.98 | 93 | 1013.5 |
| 20260508034635 | 68 | 253 | 0.0 | 0.0 | 0.00 | 0.98 | 0.98 | 92 | 1013.5 |
| 20260508033135 | 69 | 342 | 1.7 | 1.7 | 0.00 | 0.98 | 0.98 | 92 | 1013.4 |
| 20260508031636 | 69 | 347 | 0.0 | 1.7 | 0.00 | 0.98 | 0.98 | 92 | 1013.8 |
| 20260508030205 | 70 | 331 | 0.0 | 0.0 | 0.00 | 0.98 | 0.98 | 92 | 1013.7 |
| 20260508024705 | 70 | 351 | 0.0 | 0.0 | 0.00 | 0.98 | 0.98 | 92 | 1013.6 |
| 20260508023205 | 71 | 69 | 0.0 | 1.7 | 0.00 | 0.98 | 0.98 | 91 | 1013.4 |
| 20260508021705 | 71 | 328 | 0.0 | 0.0 | 0.00 | 0.98 | 0.98 | 92 | 1013.0 |
| 20260508014704 | 72 | 355 | 0.0 | 0.0 | 0.00 | 0.98 | 0.98 | 94 | 1012.3 |
| 20260508013203 | 72 | 355 | 0.0 | 0.0 | 0.00 | 0.98 | 0.98 | 93 | 1012.1 |
| 20260508011703 | 72 | 60 | 0.0 | 0.0 | 0.00 | 0.98 | 0.98 | 93 | 1012.1 |
| 20260508010203 | 72 | 41 | 0.0 | 0.0 | 0.00 | 0.98 | 0.98 | 94 | 1012.2 |
| 20260508004703 | 72 | 41 | 0.0 | 0.0 | 0.00 | 0.98 | 0.98 | 93 | 1012.0 |
| 20260508003202 | 73 | 41 | 0.0 | 0.0 | 0.00 | 0.98 | 0.98 | 92 | 1011.9 |
| 20260508001703 | 74 | 41 | 0.0 | 0.0 | 0.00 | 0.98 | 0.98 | 92 | 1011.8 |
| 20260507234702 | 75 | 41 | 0.0 | 0.0 | 0.00 | 0.98 | 0.98 | 90 | 1011.7 |
| 20260507233202 | 75 | 76 | 0.0 | 0.0 | 0.00 | 0.98 | 0.98 | 90 | 1011.8 |
| 20260507231702 | 77 | 72 | 1.7 | 1.7 | 0.00 | 0.98 | 0.98 | 91 | 1011.5 |
| 20260507230202 | 78 | 136 | 0.0 | 0.0 | 0.00 | 0.98 | 0.98 | 89 | 1011.5 |
| 20260507224702 | 78 | 135 | 0.0 | 0.0 | 0.00 | 0.98 | 0.98 | 90 | 1011.6 |
| 20260507223202 | 78 | 136 | 0.0 | 0.0 | 0.00 | 0.98 | 0.98 | 90 | 1011.6 |
| 20260507221702 | 78 | 136 | 0.0 | 0.0 | 0.00 | 0.98 | 0.98 | 89 | 1011.6 |
| 20260507220202 | 78 | 136 | 0.0 | 0.0 | 0.00 | 0.98 | 0.98 | 89 | 1011.5 |
| 20260507214702 | 78 | 141 | 0.0 | 0.0 | 0.00 | 0.98 | 0.98 | 88 | 1011.5 |
| 20260507213202 | 79 | 141 | 0.0 | 0.0 | 0.00 | 0.98 | 0.98 | 88 | 1011.5 |
| 20260507211702 | 79 | 143 | 0.0 | 1.7 | 0.00 | 0.98 | 0.98 | 89 | 1011.5 |
| 20260507210202 | 79 | 111 | 0.0 | 0.0 | 0.00 | 0.98 | 0.98 | 88 | 1011.6 |
| 20260507204702 | 78 | 141 | 0.0 | 0.0 | 0.00 | 0.98 | 0.98 | 89 | 1011.3 |
| 20260507203201 | 77 | 144 | 0.0 | 0.0 | 0.00 | 0.98 | 0.98 | 92 | 1011.6 |
| 20260507201701 | 76 | 144 | 0.0 | 0.0 | 0.00 | 0.98 | 0.98 | 94 | 1011.6 |
| 20260507200201 | 75 | 151 | 0.0 | 0.0 | 0.00 | 0.98 | 0.98 | 94 | 1011.6 |
| 20260507193200 | 73 | 6 | 0.0 | 0.0 | 0.00 | 0.98 | 0.98 | 95 | 1011.8 |
| 20260507191700 | 73 | 6 | 0.0 | 0.0 | 0.00 | 0.98 | 0.98 | 95 | 1012.1 |
| 20260507190200 | 73 | 6 | 0.0 | 1.7 | 0.00 | 0.98 | 0.98 | 95 | 1011.8 |
| 20260507184659 | 73 | 356 | 0.0 | 1.7 | 0.00 | 0.98 | 0.98 | 94 | 1012.2 |
| 20260507183159 | 73 | 342 | 0.0 | 0.0 | 0.01 | 0.98 | 0.98 | 94 | 1012.5 |
| 20260507181659 | 72 | 347 | 0.0 | 0.0 | 0.02 | 0.98 | 0.98 | 94 | 1012.7 |
| 20260507180159 | 72 | 9 | 0.0 | 1.7 | 0.03 | 0.98 | 0.98 | 94 | 1012.6 |
| 20260507174659 | 71 | 255 | 0.0 | 0.0 | 0.12 | 0.98 | 0.98 | 95 | 1013.3 |
| 20260507173158 | 71 | 15 | 0.0 | 1.7 | 0.15 | 0.97 | 0.97 | 94 | 1013.0 |
| 20260507171658 | 71 | 15 | 0.0 | 0.0 | 0.14 | 0.96 | 0.96 | 95 | 1013.2 |
| 20260507170158 | 72 | 170 | 0.0 | 0.0 | 0.13 | 0.95 | 0.95 | 94 | 1012.3 |
| 20260507164658 | 72 | 60 | 0.0 | 0.0 | 0.05 | 0.86 | 0.86 | 94 | 1013.5 |
| 20260507163157 | 72 | 60 | 0.0 | 0.0 | 0.01 | 0.82 | 0.82 | 94 | 1012.9 |
| 20260507161657 | 71 | 61 | 0.0 | 1.7 | 0.04 | 0.82 | 0.82 | 94 | 1012.7 |
| 20260507160157 | 70 | 189 | 0.0 | 0.0 | 0.51 | 0.82 | 0.82 | 94 | 1013.3 |
| 20260507154657 | 70 | 208 | 0.0 | 0.0 | 0.69 | 0.81 | 0.81 | 95 | 1013.5 |